Theta_e
324 316 315 318 317 315 312 303 297 292 285 285 282 284 289 292 292 292 292 293 291 293 293 297 296 296 296 294 294 295 295 292 293 287 289 297 306 308 307 309 309 309 310 312 314 318 323 331 336 338 339 340 341 342 343 344 345 345 345 345 346 346 347 346 347 347 347 349 348 348 348 348 348 347 348 349 349 349 349 349 349 348 349 349 349 350 349 349 350 349 349 349 348 350 350 349 349
319 315 317 318 315 314 308 296 288 283 283 283 285 284 288 289 292 289 291 291 292 295 296 298 299 300 300 299 297 296 296 296 297 297 301 305 305 305 307 308 307 306 307 309 311 315 320 326 334 336 337 338 339 340 340 341 341 341 342 342 343 344 345 346 346 346 347 347 348 348 348 349 348 347 348 348 349 349 349 346 347 346 347 348 347 349 349 349 350 350 350 349 349 350 350 350 349
317 315 316 314 313 308 302 297 295 280 282 283 283 285 288 291 290 290 291 292 295 296 294 294 295 293 293 294 294 292 291 299 299 301 300 303 300 302 306 307 307 305 305 307 308 311 317 325 330 332 335 335 336 337 337 337 337 338 339 341 341 342 343 344 344 344 345 345 346 346 347 347 348 347 346 345 346 346 346 344 347 346 346 347 348 349 348 348 349 348 349 349 349 350 350 350 350
314 316 313 311 309 298 296 287 285 282 286 280 281 286 289 289 291 291 291 294 295 293 293 294 293 295 292 292 293 295 293 295 300 299 298 299 301 304 305 305 307 302 303 304 305 308 314 325 327 329 330 332 332 332 332 332 333 334 335 336 337 338 339 341 342 343 344 344 344 345 345 345 346 347 347 346 344 344 345 344 345 347 348 348 347 350 348 347 348 348 349 348 348 348 350 350 350
315 315 311 305 301 299 290 286 282 282 284 281 286 286 288 288 291 289 292 292 291 291 293 293 291 294 297 294 294 292 293 297 299 301 300 302 303 303 303 305 303 300 301 302 303 305 312 323 323 325 327 328 328 328 328 329 329 330 330 331 332 333 334 335 337 338 340 341 342 343 343 344 345 345 346 345 345 345 344 345 345 343 344 346 347 347 347 350 349 348 348 348 348 348 348 349 350
309 308 309 310 305 298 291 288 287 285 285 284 286 289 288 288 291 290 292 292 293 291 292 291 291 291 291 293 295 291 296 295 298 299 299 299 303 303 303 306 299 299 300 300 301 303 310 321 322 323 324 325 326 326 325 326 327 327 327 328 329 330 330 331 332 335 337 338 339 339 340 343 344 344 344 343 343 344 344 344 345 344 343 344 348 346 346 348 350 348 347 347 347 347 347 348 349
310 304 301 303 298 295 290 283 284 282 291 287 290 288 290 289 290 291 291 293 294 293 294 294 294 293 291 293 294 296 298 299 298 299 301 302 301 302 303 299 299 298 299 299 300 302 308 319 320 321 321 322 323 323 323 324 325 325 325 326 327 327 327 328 330 332 332 331 331 333 336 338 340 342 341 342 342 342 342 343 343 343 343 344 344 346 348 349 347 346 346 347 347 347 348 348 349
309 306 300 295 290 286 284 282 285 282 289 288 290 290 290 289 288 290 289 290 292 292 294 293 292 290 290 294 290 295 298 297 300 301 300 298 300 301 302 299 297 297 298 298 299 301 310 315 317 317 318 320 321 321 322 323 323 323 324 324 324 325 326 326 328 328 327 327 328 331 333 335 337 339 338 339 340 341 340 341 341 341 342 342 343 342 343 346 347 347 346 346 346 346 348 348 348
303 302 298 295 288 285 282 285 287 287 286 288 289 290 301 289 289 289 289 290 291 291 293 293 292 290 290 290 290 293 295 297 296 302 299 298 298 299 302 300 297 297 297 298 298 299 302 311 314 315 315 316 318 319 320 321 321 321 322 322 322 323 324 324 325 325 324 324 326 328 328 328 331 333 335 336 335 337 338 339 340 340 340 341 342 342 341 343 343 342 343 346 345 344 346 347 348
299 300 293 291 286 287 281 285 286 288 290 290 290 293 289 288 289 290 290 291 292 293 292 291 291 289 290 289 290 292 294 296 297 297 297 297 298 299 300 299 299 297 296 297 297 298 301 307 311 311 312 313 315 317 318 318 319 319 320 320 320 321 321 321 322 322 321 322 324 324 324 323 324 325 326 326 330 333 334 335 336 338 339 340 340 341 341 341 344 344 343 345 345 345 345 347 348
298 294 293 289 282 283 284 284 282 285 289 288 288 290 289 289 289 289 290 291 291 291 292 291 290 289 289 289 288 293 294 293 294 293 294 297 297 298 296 298 298 298 296 296 297 297 297 300 307 309 309 310 311 314 315 316 317 317 318 318 318 318 318 318 319 318 318 319 321 321 320 320 320 321 322 323 324 324 326 326 328 333 336 338 339 339 339 340 340 342 344 343 340 343 344 345 346
293 292 290 282 282 284 282 285 286 287 287 287 293 292 291 290 290 290 289 292 289 290 290 292 291 290 289 288 289 292 291 292 292 293 293 295 293 295 296 295 297 297 297 295 295 295 296 297 298 305 307 307 308 310 311 312 313 314 315 315 316 316 316 316 316 316 316 316 318 317 317 316 316 317 318 320 320 319 319 320 322 326 329 331 332 332 333 336 338 340 341 340 339 340 342 343 345
292 289 287 286 287 286 284 285 287 290 284 287 290 293 290 291 290 291 289 289 289 290 290 291 292 290 286 286 288 291 289 291 293 293 294 293 293 292 295 294 297 296 297 297 294 294 295 296 296 298 302 304 305 305 307 309 310 311 312 312 313 313 313 313 313 313 313 313 314 314 313 312 312 313 315 316 317 316 317 317 319 321 322 323 324 325 328 330 333 336 337 338 339 339 340 341 343
292 291 285 287 284 282 283 285 284 287 286 289 289 290 290 290 289 288 290 290 289 289 291 291 293 290 288 287 289 288 289 291 292 293 292 293 294 292 294 293 295 294 295 294 293 293 293 295 296 296 296 296 296 299 303 306 307 308 309 309 309 310 310 310 310 310 310 310 310 310 309 308 309 309 311 312 313 313 313 313 316 318 319 320 320 321 325 328 330 332 330 331 334 337 338 339 339
298 291 287 284 283 285 283 286 287 283 287 287 292 290 289 291 288 289 290 289 290 290 289 292 293 292 288 288 286 289 290 291 291 294 293 293 293 292 293 293 293 294 293 292 293 292 292 293 294 294 296 295 296 296 295 298 305 305 306 306 307 308 308 308 308 307 306 307 308 308 306 305 305 305 307 308 309 309 309 309 312 316 317 318 318 319 322 325 325 324 325 326 328 330 334 336 336
295 292 286 287 286 284 286 286 283 285 287 288 290 288 290 290 289 290 290 290 289 289 289 292 289 290 290 291 289 290 290 290 292 292 290 291 291 292 290 290 290 291 292 292 292 292 292 292 293 294 294 294 295 295 295 295 302 303 303 304 304 305 305 305 305 304 303 304 304 305 304 302 301 300 304 303 305 306 306 305 309 312 314 315 315 318 321 321 321 321 323 326 327 327 328 329 331
295 291 288 282 288 285 286 286 286 287 286 288 290 290 291 289 289 287 288 288 289 288 285 286 286 288 287 287 289 289 289 297 296 290 291 290 289 289 289 289 291 289 292 290 291 291 291 291 292 293 293 293 294 295 295 295 299 301 299 301 302 303 303 303 303 302 302 300 302 302 301 298 296 297 297 300 303 302 303 305 306 309 311 311 312 314 317 318 318 320 322 324 324 324 322 324 328
292 288 283 287 284 285 286 288 288 288 288 290 288 288 289 289 289 289 289 288 285 285 285 285 286 286 286 288 288 289 288 289 289 288 288 288 288 287 287 288 287 288 289 290 290 290 290 290 290 292 292 293 293 295 296 296 296 298 293 294 296 298 300 301 297 297 300 295 300 298 297 297 296 295 297 302 298 300 300 303 304 307 308 307 308 311 313 314 316 319 321 321 321 319 316 316 320
288 284 283 287 285 288 290 287 289 289 292 289 289 287 290 289 289 288 288 286 285 287 286 284 285 286 287 287 288 287 287 287 288 287 287 287 286 287 287 288 286 287 287 288 289 290 290 290 290 291 291 292 292 292 295 295 293 292 293 293 296 298 297 296 293 295 293 294 295 295 297 295 295 295 297 300 301 302 299 302 303 304 304 304 306 308 309 311 313 316 318 318 316 314 312 313 315
291 288 285 283 288 287 288 287 289 289 289 289 289 289 288 289 288 289 290 284 285 286 287 284 283 284 285 285 286 286 285 286 287 286 286 286 286 285 285 286 286 287 287 288 289 291 289 290 289 290 291 291 292 292 294 292 293 292 292 292 293 293 293 294 292 292 293 293 294 295 295 295 295 294 300 300 300 295 296 299 301 301 301 301 303 304 306 307 309 313 314 314 312 310 308 310 311
292 286 283 290 288 291 292 287 288 287 290 289 288 288 288 289 288 289 286 287 285 286 287 290 287 286 286 285 285 285 284 285 285 286 285 285 286 286 285 285 286 287 287 290 289 289 288 289 289 289 290 290 291 291 292 292 293 291 291 291 292 291 292 292 292 292 292 292 293 294 294 294 294 294 294 294 294 294 294 294 295 295 295 295 301 298 299 300 304 307 307 307 306 305 305 306 308
289 290 288 289 288 290 291 288 289 288 287 286 286 289 289 288 289 287 287 289 289 289 291 289 287 288 286 285 285 284 283 284 284 285 285 285 285 285 285 285 286 286 289 286 286 286 288 288 288 288 289 289 290 290 291 294 292 290 291 292 292 291 292 291 291 291 291 292 292 293 294 292 293 293 293 293 293 293 293 293 294 294 294 294 296 296 297 299 301 304 305 304 303 303 303 304 306
291 288 287 287 287 291 290 290 289 288 288 287 285 288 288 289 287 286 287 291 290 288 285 287 287 287 286 286 284 283 283 283 283 284 284 285 285 285 285 285 284 285 285 285 286 286 290 287 288 288 288 289 290 290 290 290 290 290 290 293 292 290 292 291 291 290 291 291 291 292 292 291 291 291 292 292 292 292 292 293 293 293 293 293 294 295 296 298 300 302 302 302 302 301 302 303 304
290 291 288 291 287 290 291 292 288 287 289 288 286 289 289 287 288 286 287 291 286 283 284 286 286 286 284 284 283 284 283 283 283 284 284 284 284 286 286 286 286 285 284 285 285 285 287 286 287 287 287 290 288 290 290 289 289 290 291 293 290 292 293 290 290 290 291 290 291 291 293 291 291 291 291 291 292 292 292 293 292 292 292 293 294 294 295 296 298 300 301 300 300 300 300 301 302
289 290 289 290 288 288 288 287 287 285 286 287 287 288 289 287 288 285 287 291 285 284 284 285 285 284 283 283 283 283 283 283 283 283 285 283 284 287 285 285 285 285 284 285 285 285 285 288 287 286 285 287 288 289 288 289 289 289 289 289 288 296 291 290 290 291 290 290 290 291 292 291 290 291 290 291 291 291 292 292 292 292 292 292 293 293 294 295 296 298 299 299 299 299 299 300 301
290 291 288 288 289 289 287 289 287 286 287 286 288 287 285 284 286 286 290 285 283 284 284 284 283 283 282 283 283 283 283 283 283 283 284 284 285 284 284 283 286 284 284 284 285 285 285 287 286 285 286 288 290 288 288 289 288 288 288 289 288 293 288 290 290 289 289 288 289 290 290 291 290 290 290 290 290 290 291 291 291 291 291 292 292 292 294 294 295 296 297 298 298 298 299 299 300
289 290 289 289 289 287 288 289 288 286 286 285 287 287 286 286 287 287 282 283 283 283 282 281 283 283 282 283 282 282 283 283 283 283 285 284 283 282 284 283 283 284 285 285 285 285 288 285 285 285 286 290 289 288 288 288 288 287 289 288 288 288 289 291 290 289 289 288 290 290 290 290 291 290 290 290 290 290 290 290 290 291 291 291 292 292 293 294 295 296 297 297 297 298 298 299 300
289 289 287 287 285 285 285 286 285 287 290 284 287 286 285 285 285 289 284 283 283 283 281 281 281 282 282 282 282 283 282 283 283 282 283 282 282 282 282 282 282 283 284 284 285 286 285 284 285 286 286 288 288 287 288 288 288 287 289 288 287 289 290 289 288 289 290 288 289 289 289 289 291 289 289 290 290 289 289 289 289 289 289 290 291 291 292 293 294 295 296 297 297 297 298 299 299
288 287 289 286 285 288 288 288 287 287 290 285 286 287 284 284 286 286 283 283 283 282 281 281 281 281 281 281 282 282 282 282 281 281 282 282 282 283 282 282 282 283 283 284 284 285 284 285 288 286 287 287 285 287 287 287 287 287 287 287 288 290 288 288 287 287 287 288 288 288 288 288 289 288 288 289 289 288 287 287 287 287 288 289 289 290 291 292 293 294 294 296 296 297 297 297 299
288 286 286 287 285 286 289 287 286 288 289 284 288 285 285 286 291 282 283 282 281 281 281 281 281 280 280 280 281 282 282 281 281 282 281 281 281 282 281 281 283 282 282 284 283 284 286 287 288 288 289 287 288 288 289 287 287 287 289 287 288 288 287 287 288 287 287 288 287 287 287 287 288 288 288 287 287 286 286 286 286 286 287 288 288 289 289 290 291 292 293 294 295 295 295 296 297
289 286 283 281 283 283 288 287 287 287 288 286 289 284 289 286 286 284 283 283 282 282 282 281 281 280 280 281 281 282 282 281 282 282 282 282 281 281 281 280 283 283 285 282 283 283 284 284 289 286 289 286 286 285 286 286 288 287 286 286 287 287 288 286 285 286 286 286 286 286 286 287 287 287 286 286 285 285 285 285 285 286 287 287 287 287 287 288 289 290 292 292 293 294 295 295 296
281 286 282 278 284 282 284 286 286 288 288 286 288 284 287 290 288 283 283 282 282 283 283 282 281 281 280 280 281 281 282 281 281 281 281 281 281 281 281 281 280 281 282 282 283 284 283 282 286 285 285 285 285 287 287 286 286 285 286 290 287 286 286 285 285 285 286 285 285 285 285 286 286 285 285 285 284 284 284 284 285 285 286 286 286 286 287 286 287 288 291 292 292 293 294 294 295
278 284 281 282 281 281 284 286 282 286 287 287 287 286 285 288 283 281 281 282 281 282 282 282 281 281 280 281 281 281 281 281 281 281 281 281 281 279 280 280 280 281 281 281 282 282 283 282 286 285 284 285 285 284 284 285 285 285 285 285 285 285 284 284 284 285 285 284 284 284 285 286 284 284 284 284 283 283 283 283 283 284 284 284 284 284 285 286 285 286 287 291 292 292 293 293 294
280 279 282 279 283 281 282 283 284 284 287 285 286 284 287 289 286 280 281 282 280 281 282 282 282 281 281 281 281 281 281 281 281 281 281 281 281 280 278 284 281 283 281 284 282 281 281 282 283 285 285 286 285 285 285 285 285 285 284 284 287 285 283 284 284 284 284 283 284 284 284 284 285 283 283 283 282 283 283 282 282 282 283 283 283 283 283 284 285 285 285 287 289 291 292 293 293
283 281 281 282 277 279 282 282 284 285 286 284 283 284 286 289 290 284 282 281 281 281 283 283 282 281 281 281 281 281 281 281 282 282 281 281 280 280 279 280 281 281 280 279 279 280 282 282 284 285 287 285 284 284 284 285 284 283 283 283 283 283 283 283 284 283 283 283 283 284 284 283 283 282 283 283 282 282 281 281 281 281 282 282 281 282 282 283 284 284 284 284 285 287 289 292 293
284 282 280 278 279 282 279 282 281 283 282 282 282 284 287 288 289 288 282 282 280 282 282 282 281 281 281 281 281 282 282 282 282 282 281 280 280 280 280 279 279 279 279 278 282 281 281 281 282 282 283 283 283 283 284 283 282 282 282 281 281 282 282 283 284 282 283 282 284 283 283 282 282 283 282 282 281 281 281 281 281 281 281 281 281 281 282 282 283 283 283 284 284 286 288 291 293
281 279 280 279 279 281 281 281 281 282 283 283 284 283 284 286 288 289 287 281 281 281 281 281 282 281 281 281 281 282 282 282 283 282 280 280 280 280 279 278 278 279 279 278 279 280 280 281 283 281 282 282 284 282 282 282 281 281 281 281 280 281 281 283 283 282 283 282 283 283 282 282 281 281 282 281 281 281 281 280 280 280 280 281 281 281 282 283 284 284 284 284 284 284 286 290 293
282 281 279 280 279 280 284 283 282 280 283 280 280 280 283 285 287 289 287 281 282 281 281 282 282 282 282 282 282 282 282 281 281 280 279 279 279 279 279 278 280 279 279 278 279 280 280 280 280 281 281 282 282 282 282 283 281 281 280 280 280 281 281 280 281 281 282 284 282 282 282 281 281 281 281 281 281 280 279 279 279 279 280 280 281 282 283 284 282 282 282 282 285 285 286 290 293
280 281 279 279 281 280 282 281 280 281 282 281 281 281 284 287 288 290 290 287 288 285 284 286 284 283 283 282 282 282 281 281 281 281 280 279 279 279 278 278 278 279 279 280 279 278 279 279 280 281 281 281 282 282 284 281 281 282 281 281 280 280 281 282 281 282 283 282 281 281 281 281 281 280 280 281 280 280 279 279 279 279 279 281 280 280 280 279 280 280 281 282 283 286 287 290 292
279 279 279 281 281 281 281 280 280 281 282 281 282 281 283 286 288 288 291 288 288 286 285 285 285 285 284 283 283 282 281 281 280 280 279 279 279 278 278 277 278 278 278 278 278 279 279 281 280 280 281 281 281 281 285 283 282 282 283 282 281 281 280 283 283 282 281 280 280 280 280 280 280 280 279 279 280 279 279 279 279 279 279 280 279 278 278 278 279 280 280 282 285 285 287 288 292
279 280 280 280 281 281 281 281 280 280 280 279 281 284 286 286 285 286 283 279 284 285 284 283 283 284 284 283 283 283 282 282 281 280 279 278 278 277 277 278 278 277 278 278 278 279 280 280 280 280 280 280 280 283 283 281 282 280 280 280 281 280 280 280 279 278 280 280 281 279 279 279 280 279 279 279 279 279 279 279 279 279 278 278 279 278 278 278 279 279 280 280 281 282 283 286 289
276 279 283 283 282 281 279 279 280 278 278 279 280 281 279 277 281 283 284 282 282 281 283 285 284 283 282 282 283 282 283 282 282 281 279 279 278 278 277 277 277 278 278 278 278 279 279 279 279 279 279 280 280 280 281 281 281 279 278 277 277 277 277 277 277 277 278 278 278 279 279 279 279 279 279 279 278 279 278 278 278 278 278 278 278 278 278 279 279 279 279 279 279 281 282 283 284
281 282 280 281 280 281 280 279 281 276 275 280 279 279 279 279 284 282 282 282 284 284 281 284 284 283 282 283 283 282 282 281 281 280 279 278 278 277 277 277 277 277 278 278 277 278 278 279 278 279 279 279 280 280 280 281 279 278 278 277 277 277 276 277 278 278 278 278 279 278 278 278 278 278 278 278 278 278 278 278 278 278 278 278 279 278 278 278 278 279 280 280 280 281 282 281 282
280 280 278 280 280 282 279 279 281 279 278 279 279 281 278 279 282 287 287 284 285 285 286 286 285 283 283 283 283 282 281 281 281 280 279 279 278 278 278 278 277 278 279 277 277 277 278 278 278 278 279 281 280 280 279 280 279 278 277 277 278 277 277 277 277 278 278 279 278 278 278 278 278 278 278 278 278 278 278 278 278 277 277 277 278 278 277 278 279 280 280 281 281 281 281 280 281
279 281 279 279 281 279 278 280 277 276 276 277 276 279 275 275 275 277 278 281 283 284 286 286 286 285 283 283 282 282 282 281 281 279 278 278 278 277 278 278 278 277 277 277 277 278 278 278 278 278 278 278 279 278 280 279 280 279 278 277 276 278 278 278 278 279 278 277 276 277 277 277 277 277 278 277 277 277 278 277 277 277 277 277 278 278 278 278 278 279 279 279 279 279 279 280 281
282 280 279 279 278 278 277 275 279 274 273 278 275 278 274 280 279 280 276 279 280 282 285 286 286 286 283 282 282 281 280 280 279 280 279 278 278 278 277 278 277 277 277 278 277 277 277 277 278 278 277 277 278 278 278 278 277 279 277 276 276 276 277 277 276 276 276 276 275 276 276 276 276 276 277 277 277 277 277 277 277 277 276 277 278 277 277 277 277 278 279 279 279 279 280 280 280
281 280 281 279 277 275 275 274 272 272 273 279 280 278 279 276 279 278 280 280 282 284 282 283 283 284 281 281 281 281 280 279 278 278 278 278 277 277 277 276 277 276 276 276 277 277 276 277 276 276 277 277 277 277 277 277 277 277 276 276 276 276 276 276 275 275 275 275 275 275 275 275 276 276 276 276 276 276 276 277 277 276 277 277 277 276 276 276 277 277 278 279 279 279 280 280 281
281 281 279 282 282 275 270 264 269 270 273 272 274 277 279 273 277 279 281 279 280 284 286 286 287 288 283 279 280 280 279 278 278 277 276 277 276 276 276 276 276 276 275 276 276 276 276 276 276 276 276 276 276 277 277 277 277 276 276 276 276 276 275 275 275 274 274 274 274 274 275 275 275 275 275 275 275 276 276 276 276 276 276 276 276 276 276 276 276 277 277 278 278 279 279 278 279
281 278 276 275 271 270 272 266 270 268 274 275 271 275 275 276 282 280 281 283 282 281 284 287 288 287 281 278 279 279 279 277 277 276 276 276 276 276 276 276 276 275 276 276 276 276 276 276 276 275 275 276 276 276 276 276 276 276 276 276 276 276 276 275 275 274 274 274 274 274 274 274 274 274 274 274 275 275 275 275 275 275 275 276 276 276 276 276 276 276 276 277 278 277 277 277 278
280 281 275 272 270 268 268 267 263 268 271 273 275 275 275 282 283 286 287 289 288 288 285 285 285 282 280 279 279 278 277 277 277 276 276 276 277 276 276 276 276 276 275 276 275 277 276 276 275 275 275 275 275 276 275 275 275 276 275 275 275 275 275 275 274 274 274 274 274 274 274 274 273 273 274 274 274 275 275 275 276 275 276 276 276 276 276 276 276 276 276 276 276 276 276 277 278
281 279 282 279 271 266 267 265 270 276 274 273 274 272 273 274 278 280 285 288 287 282 278 278 276 276 278 279 278 277 276 276 276 276 276 276 276 276 276 276 275 275 275 275 275 275 275 275 275 275 275 275 275 275 275 275 275 275 275 275 275 275 274 274 274 275 274 274 274 273 273 274 273 273 274 274 275 275 275 275 275 275 275 276 276 276 276 276 276 276 276 276 276 276 276 277 278
279 278 280 276 279 277 275 271 268 270 272 274 268 276 275 281 281 281 276 277 278 277 278 278 278 277 278 277 277 277 276 276 276 276 276 276 276 276 275 275 275 274 275 274 275 275 275 275 275 275 275 275 275 276 275 275 275 275 275 274 274 275 275 275 274 274 274 274 273 273 273 273 273 274 274 274 274 275 274 275 275 275 275 275 275 275 275 275 275 275 275 275 275 276 276 277 278
279 280 277 279 281 282 276 272 269 268 265 276 268 275 280 279 284 282 282 279 281 279 278 278 277 276 275 277 277 276 276 275 275 276 276 275 275 275 275 275 274 274 274 274 275 275 275 275 275 274 274 274 274 275 274 274 274 274 274 274 273 273 273 273 273 273 273 273 273 273 273 273 273 274 274 275 274 274 275 275 275 275 275 275 275 275 275 274 274 274 274 274 274 275 276 276 277
280 275 279 280 281 279 277 272 268 263 266 274 269 276 279 277 278 277 278 280 281 280 281 280 276 274 275 277 277 276 275 275 275 275 275 275 275 275 274 274 274 274 274 274 275 275 275 274 274 274 274 273 274 274 274 274 273 273 273 273 273 273 273 272 272 272 272 272 272 272 273 272 272 273 274 274 274 274 274 275 274 274 275 275 275 275 274 274 274 274 274 274 274 275 274 274 275
280 277 281 280 275 274 274 268 270 266 266 268 274 276 279 281 281 281 279 277 279 281 281 278 276 275 276 277 277 275 275 275 275 275 275 275 275 275 274 274 274 274 275 273 274 274 273 273 273 273 273 273 274 274 273 273 273 273 273 273 272 272 272 272 272 272 272 271 271 271 272 272 272 273 273 273 273 273 274 274 274 274 274 274 274 274 274 274 274 273 274 274 274 274 274 274 275
280 281 280 280 278 272 271 276 269 270 269 266 275 278 277 281 281 281 286 280 280 280 280 279 279 279 278 278 277 275 275 275 275 275 275 275 275 274 274 274 273 273 273 273 273 273 273 273 273 273 274 273 273 272 272 272 272 272 272 272 272 272 272 271 271 271 271 271 271 271 271 271 271 272 272 272 272 273 273 273 273 274 274 274 274 274 274 274 273 273 273 273 273 274 273 273 274
277 278 275 275 275 277 276 274 272 272 268 269 268 273 279 283 285 284 286 284 281 282 284 281 279 278 278 278 277 276 275 275 275 275 275 275 274 274 274 273 272 272 273 273 272 272 272 272 272 273 272 272 271 272 271 271 271 271 271 271 270 271 270 270 270 270 270 270 270 271 271 271 271 271 271 271 271 272 272 273 273 273 273 273 273 273 273 273 273 272 272 272 273 273 273 273 274
282 282 280 281 277 273 270 274 273 269 273 269 268 274 280 285 285 286 284 284 283 283 285 284 281 279 278 277 277 276 276 275 275 275 275 274 274 274 273 272 272 272 272 272 272 271 271 271 271 271 271 270 270 270 270 270 270 270 269 269 269 269 269 269 269 269 269 269 269 270 270 270 270 270 271 271 271 271 272 272 273 273 273 273 272 272 272 272 272 271 271 272 272 272 272 273 273
Wind_Speed
2 2 1 3 3 1 1 6 1 2 3 1 0 1 1 0 1 0 1 0 1 2 3 2 2 3 1 2 9 5 0 4 1 4 2 2 1 2 5 6 8 8 8 8 8 8 9 12 17 17 18 18 19 19 19 20 20 20 21 20 19 17 15 12 10 11 12 13 14 15 12 13 11 11 8 9 9 11 12 9 9 10 11 11 11 12 11 12 12 12 13 13 13 10 9 10 11
1 1 2 0 0 1 1 1 3 3 6 2 0 1 2 1 1 2 3 1 1 3 1 10 11 13 14 12 8 4 5 3 1 2 1 1 2 2 6 7 6 7 7 7 8 8 8 11 17 18 18 18 18 19 19 19 20 20 21 20 21 21 20 18 16 16 16 15 14 14 15 16 16 14 13 10 11 11 12 11 8 8 11 13 14 15 13 13 13 14 14 15 14 12 10 9 9
1 1 2 3 2 3 2 3 1 1 1 1 2 5 1 1 1 1 2 5 7 7 3 7 6 4 2 2 4 3 2 1 2 1 1 3 3 5 8 7 5 5 5 6 7 8 7 10 16 17 18 19 19 20 20 19 20 20 20 21 21 21 21 21 21 20 18 18 17 16 16 15 15 15 13 13 14 16 15 13 9 8 10 11 13 16 13 13 14 14 14 16 16 14 12 10 10
2 3 2 3 2 2 1 4 4 5 0 2 1 2 1 2 3 3 0 6 9 5 1 1 4 2 3 6 1 2 2 1 0 2 1 2 1 4 6 5 6 4 5 6 7 7 6 10 17 18 18 19 20 20 20 20 20 20 19 19 20 21 22 22 22 22 21 21 20 19 18 18 18 17 16 15 13 14 14 15 13 10 11 12 13 14 15 14 14 13 13 14 15 15 13 12 11
3 2 2 2 3 1 3 1 4 2 0 5 1 3 3 3 7 4 1 3 4 3 1 2 4 4 0 4 0 1 3 1 2 1 2 0 2 3 4 5 4 4 6 6 6 7 7 15 17 18 19 20 20 20 20 21 20 20 20 20 20 20 20 20 20 21 22 22 22 22 22 21 21 21 20 17 16 15 15 14 15 14 16 16 14 15 14 15 15 14 14 14 15 15 14 13 12
5 3 3 1 0 2 5 2 3 1 3 5 1 1 3 5 6 4 1 2 0 1 1 2 4 4 2 1 1 1 1 2 1 2 1 1 3 4 4 3 3 4 5 5 6 6 7 16 17 19 20 20 20 20 20 21 21 21 21 21 21 20 20 20 20 20 20 22 22 22 22 22 21 21 21 21 19 17 17 17 17 17 16 17 18 17 15 15 15 15 15 15 15 15 14 13 12
1 3 5 3 2 4 4 3 2 2 0 4 0 0 3 3 5 9 4 3 0 3 2 2 5 6 4 1 1 0 1 2 1 0 1 1 3 4 4 3 1 5 6 6 6 7 9 16 17 19 19 20 20 20 20 20 20 20 20 21 20 20 20 20 20 20 21 21 21 21 21 22 22 22 21 21 21 21 21 19 18 18 18 19 19 19 19 17 17 16 16 16 15 15 13 12 11
2 0 1 2 1 4 3 1 1 3 1 4 1 1 1 3 5 5 3 3 4 3 1 4 2 5 1 3 2 1 1 0 0 0 2 3 3 3 3 3 4 6 6 6 5 5 9 16 17 18 19 19 19 19 20 20 20 20 20 20 20 20 20 20 20 20 21 21 21 21 21 22 22 22 23 22 22 22 21 22 21 20 20 20 20 19 19 20 20 19 17 17 17 15 12 11 12
5 6 0 3 3 3 3 2 0 2 4 1 3 6 1 3 7 5 1 1 2 2 6 3 0 1 3 2 2 2 1 2 1 2 3 2 2 3 2 3 5 5 6 5 5 5 5 14 16 18 19 19 19 19 19 20 20 20 20 21 20 20 20 20 20 20 21 21 21 21 21 22 22 22 22 23 24 23 23 23 23 23 22 21 21 20 20 20 20 20 19 18 18 17 13 11 12
2 2 1 2 3 2 2 1 2 2 1 2 2 0 4 3 4 2 6 2 3 8 4 1 1 2 5 5 1 1 2 0 0 3 2 2 1 2 2 3 3 4 5 6 6 5 6 11 16 17 18 19 19 19 19 20 20 20 20 20 20 21 21 20 20 21 21 21 21 21 21 21 21 21 21 22 21 23 23 23 23 22 22 23 22 21 20 21 21 22 21 20 19 18 15 14 12
0 5 2 3 5 2 3 3 3 2 1 3 5 5 3 3 5 3 1 4 2 5 1 3 3 5 5 2 3 1 1 2 4 3 1 1 1 1 2 3 3 3 5 5 5 5 5 6 13 16 17 19 20 20 20 20 20 20 20 20 20 20 20 21 21 20 20 20 20 20 21 21 21 21 21 21 21 22 23 24 23 24 23 23 24 25 24 22 21 21 22 21 22 21 19 17 16
1 1 2 3 2 5 4 5 1 3 4 3 2 1 1 5 4 4 3 8 4 2 4 5 3 6 4 2 3 2 0 4 3 2 2 1 0 1 3 2 3 4 4 4 4 5 5 5 5 10 15 17 19 19 19 20 20 20 19 20 20 20 20 20 20 21 20 20 20 20 20 21 21 21 21 21 21 22 22 22 22 22 23 24 24 24 23 24 23 24 24 23 22 22 23 22 18
3 1 6 6 0 1 1 3 2 1 2 3 3 0 1 5 3 6 6 3 4 6 3 4 4 3 3 4 2 0 3 5 3 2 1 0 1 2 2 2 3 4 5 4 5 5 5 4 5 5 9 13 13 16 18 19 19 19 19 19 19 19 19 20 20 20 20 20 20 19 20 20 20 20 21 21 22 22 22 22 22 21 21 22 22 23 23 23 22 23 22 22 22 22 22 22 23
4 6 4 1 1 3 4 2 1 2 3 2 2 0 1 2 2 3 7 6 5 6 1 1 5 3 1 2 1 4 6 5 4 2 1 0 1 2 1 1 3 4 4 4 5 4 5 4 5 5 6 6 6 9 12 16 18 19 18 18 18 18 19 19 19 19 19 19 18 18 18 18 19 19 19 20 21 21 21 22 22 21 21 21 22 22 22 22 22 23 23 23 23 22 21 22 21
0 2 6 5 1 1 2 5 9 5 5 4 2 3 2 2 1 2 4 5 6 1 3 1 2 2 5 9 5 10 8 6 5 2 1 0 1 1 1 2 3 3 4 4 4 4 4 4 5 5 5 5 6 6 6 8 15 16 17 17 17 18 18 18 18 18 18 18 18 17 16 15 15 16 18 18 19 19 20 20 21 21 22 22 21 21 21 21 22 22 22 22 22 23 23 23 22
4 5 4 3 2 3 3 2 1 3 5 4 1 5 5 1 0 2 2 1 1 1 1 4 1 2 1 9 3 7 8 6 4 2 2 1 1 0 2 2 2 2 3 4 4 4 3 4 4 5 6 5 5 5 5 5 8 13 13 14 15 16 17 17 16 15 13 13 14 14 14 9 9 8 14 11 16 18 18 17 19 20 21 21 22 22 21 21 21 22 21 21 21 22 22 23 23
2 3 2 4 1 2 3 3 6 4 3 3 1 3 4 3 0 1 1 1 6 1 2 0 2 1 2 2 1 6 6 5 5 3 2 1 0 1 1 3 2 3 3 3 4 4 4 4 5 6 5 5 5 4 4 4 5 9 7 9 11 12 13 14 14 11 10 8 8 8 7 7 7 7 7 8 10 9 15 17 19 19 20 20 21 21 21 21 21 21 20 21 21 21 21 21 18
1 2 4 1 1 2 5 6 9 1 4 3 5 5 4 2 1 1 1 6 3 2 1 3 2 1 1 0 0 2 5 6 4 5 3 3 1 1 1 1 2 3 3 4 4 3 4 4 4 5 5 5 5 5 4 4 4 6 5 4 4 6 7 8 6 5 7 5 8 6 6 6 6 5 6 8 7 8 8 14 17 19 20 20 20 21 20 21 21 21 19 20 21 20 20 11 12
4 2 3 1 3 2 5 2 5 1 1 4 4 2 4 5 8 4 3 1 1 2 2 2 1 1 2 1 2 4 4 4 4 4 5 5 4 4 2 1 3 2 4 4 4 4 4 3 4 5 4 4 5 4 4 4 4 4 5 4 4 5 4 4 4 4 4 5 5 5 5 5 5 5 6 8 7 10 9 13 15 16 17 18 19 19 19 20 20 20 19 19 19 18 10 8 9
1 2 1 1 6 3 4 3 3 3 2 3 3 1 2 1 5 3 3 4 1 8 7 1 4 6 7 4 2 3 4 4 4 5 5 4 4 3 2 2 2 2 1 1 2 3 4 4 3 3 4 4 4 4 4 5 5 4 5 4 5 4 4 3 4 4 4 4 4 5 5 4 4 5 6 9 8 7 8 10 13 13 13 13 17 11 13 15 20 17 18 18 11 7 8 8 8
1 3 2 2 2 0 1 5 4 2 0 0 1 1 0 1 2 4 3 4 7 8 8 13 17 13 13 9 6 5 5 5 4 4 4 4 3 2 2 2 2 0 1 1 1 3 3 3 3 4 4 4 4 5 5 6 6 6 5 5 5 4 4 4 4 4 4 4 5 4 4 4 4 5 4 5 5 6 6 7 8 8 8 8 10 8 8 9 9 9 9 9 7 8 8 8 8
2 0 1 2 1 1 3 3 2 2 3 4 1 3 5 2 0 4 10 9 9 11 11 12 5 12 16 14 10 5 6 6 6 6 6 6 6 4 1 1 0 1 1 3 3 3 4 3 3 4 4 5 5 5 5 5 6 6 7 7 7 6 6 6 5 5 5 5 4 4 4 4 5 5 4 5 5 6 6 7 7 7 8 8 7 8 7 8 8 8 8 9 9 8 8 8 8
1 1 1 3 2 1 1 0 2 4 2 3 3 4 4 6 2 4 8 13 4 1 2 4 5 6 7 6 7 6 6 7 6 7 6 5 3 2 1 1 2 2 3 3 3 3 3 4 5 5 6 6 6 5 6 6 6 6 6 6 6 7 6 6 6 6 5 4 4 4 5 6 5 6 6 6 6 5 5 6 7 6 7 7 8 8 8 8 8 8 8 8 8 9 9 8 8
3 1 0 1 3 3 1 1 3 2 7 5 3 2 4 3 6 1 8 14 3 3 3 4 6 8 7 9 8 9 8 8 7 6 6 5 4 3 2 1 0 1 2 2 3 3 3 5 4 4 4 5 4 5 4 5 5 5 5 5 6 6 6 6 6 6 5 5 5 5 4 4 5 6 6 6 7 6 6 6 5 6 6 6 6 6 8 8 8 7 8 8 9 8 9 9 8
2 1 2 1 2 4 2 1 1 3 5 0 4 4 5 7 3 2 10 14 0 1 3 7 9 9 7 7 9 7 6 5 5 5 3 3 2 1 1 1 0 1 1 0 2 2 3 2 3 3 3 3 3 2 3 3 3 4 4 5 5 5 5 6 5 5 6 6 5 5 4 6 5 5 4 5 5 6 6 7 7 7 6 7 7 7 7 8 8 8 8 8 8 9 8 9 9
1 1 1 0 2 2 3 2 4 5 1 3 3 6 4 3 3 7 15 5 3 3 5 7 8 10 9 9 9 8 8 8 6 6 6 3 2 3 1 2 1 2 2 1 1 1 2 2 3 3 2 2 2 2 3 3 4 3 4 4 5 4 5 5 5 6 6 5 6 4 5 4 5 5 5 5 5 5 5 6 7 7 8 7 7 8 7 7 8 9 9 8 8 8 9 9 8
2 1 2 3 2 2 2 5 2 1 2 2 4 2 2 2 3 10 3 3 5 6 5 4 9 11 9 7 7 6 8 9 10 5 2 2 2 4 4 1 2 3 0 1 1 2 2 3 3 3 3 2 2 3 3 3 3 3 4 4 4 5 5 5 5 6 5 5 5 5 5 5 6 6 6 6 5 5 5 6 7 7 8 8 8 8 8 8 8 8 9 9 9 9 8 8 9
2 1 2 2 5 3 2 1 5 1 2 5 5 4 0 1 2 13 2 4 6 10 6 6 7 8 8 7 7 6 6 6 5 4 7 5 6 5 4 4 4 1 1 1 0 1 2 2 2 3 3 3 3 4 3 4 4 3 4 4 4 5 5 5 5 5 5 5 4 4 4 5 4 4 4 4 5 6 6 7 7 7 7 8 9 10 11 10 9 9 9 8 8 9 9 8 7
0 1 2 3 6 2 0 2 1 2 1 4 4 3 4 3 10 4 2 5 5 6 8 7 7 6 6 6 6 6 8 6 4 4 6 5 4 4 5 4 4 3 3 2 0 1 1 2 2 3 3 4 4 3 4 3 4 3 4 4 4 4 5 5 5 5 6 4 4 4 4 4 3 4 5 5 6 6 6 6 6 6 6 7 8 10 12 11 10 10 10 9 9 8 9 9 7
1 3 1 5 6 2 0 0 1 2 1 4 2 6 7 9 17 2 4 9 5 5 6 7 7 6 6 6 7 6 6 5 5 6 5 5 5 4 5 4 4 4 3 1 1 1 1 1 1 2 3 4 3 3 3 3 4 3 3 3 4 4 4 5 5 5 4 4 3 3 4 4 4 6 6 6 6 6 7 6 7 7 7 7 8 8 9 9 10 11 11 11 10 9 9 9 8
1 1 5 0 4 3 2 1 1 3 1 2 0 4 12 5 8 3 7 9 13 11 10 9 8 7 7 8 7 8 7 5 6 6 5 5 4 4 5 4 4 3 1 1 1 0 2 2 1 2 1 3 2 3 3 3 3 4 4 3 3 3 3 4 5 5 4 3 2 3 4 4 5 5 5 5 5 5 5 6 6 7 8 8 8 7 8 8 9 11 10 11 11 11 10 10 9
2 2 4 3 1 5 7 2 5 4 1 1 2 5 13 15 6 5 7 7 8 11 10 10 9 9 9 8 8 8 7 5 6 5 6 6 5 5 5 5 4 3 3 2 0 0 0 1 0 1 1 2 2 3 3 3 3 4 3 3 3 3 3 4 5 5 4 3 2 3 4 4 4 4 4 4 4 4 5 5 6 6 8 8 8 8 8 9 9 10 10 10 12 12 11 13 9
5 1 4 4 0 6 8 1 2 3 1 1 5 7 8 10 3 0 4 7 8 9 8 10 12 11 10 10 9 7 6 8 7 7 7 6 6 5 5 5 5 5 3 3 2 1 1 2 1 1 2 2 3 3 3 3 3 3 3 3 4 3 4 5 4 4 4 4 2 3 3 4 4 4 4 4 4 4 5 5 6 6 7 7 7 8 8 8 9 10 11 10 11 13 12 13 12
2 2 3 2 3 3 4 5 1 1 2 3 3 3 12 13 5 3 5 9 8 10 12 12 12 10 11 8 8 9 10 9 11 10 9 7 6 6 5 5 5 4 4 3 3 4 4 3 2 2 3 3 3 3 3 3 4 3 4 4 3 3 4 4 4 3 4 4 2 2 3 3 3 4 4 5 5 5 5 5 6 6 7 7 7 7 7 7 8 9 11 10 12 13 13 12 12
3 2 3 7 2 5 8 3 2 1 0 5 2 7 17 19 14 6 10 10 11 15 15 14 12 10 10 11 11 12 11 12 13 9 8 8 7 6 5 4 4 4 4 4 3 3 3 3 3 2 2 3 3 3 3 3 4 4 3 3 3 4 4 4 4 4 5 4 2 2 3 3 3 4 5 6 6 7 7 7 7 8 7 7 7 7 7 7 7 8 11 13 11 13 14 14 12
5 5 5 3 4 7 6 6 3 0 5 7 7 10 14 17 18 9 6 10 14 16 9 7 7 9 11 12 12 12 13 15 8 6 7 6 7 7 5 4 4 4 4 3 3 3 3 2 2 2 3 3 2 2 2 3 3 3 4 4 3 3 4 4 4 4 5 5 2 2 2 2 3 4 4 5 5 6 7 7 8 9 9 9 10 11 10 8 10 11 11 12 14 13 12 12 11
2 2 2 6 6 9 5 4 3 0 1 10 13 9 13 18 20 18 6 8 11 9 10 12 11 11 12 13 15 16 15 15 7 7 7 8 8 7 5 4 4 4 4 4 4 4 4 4 2 3 3 2 2 2 2 2 2 4 2 3 5 5 5 5 4 4 4 4 1 1 1 1 3 4 5 5 7 7 6 7 8 8 8 8 8 9 9 10 9 10 11 11 13 14 12 9 10
2 2 3 8 4 10 6 2 1 3 2 6 4 4 12 16 18 18 7 7 14 13 12 14 14 14 13 15 17 16 14 3 6 8 8 7 7 6 5 5 4 5 5 4 5 5 4 3 4 4 2 2 3 3 3 2 2 2 3 5 5 6 6 5 6 5 5 4 2 3 2 2 3 4 5 5 6 6 7 7 7 7 7 8 8 8 8 9 12 11 11 13 9 12 13 8 9
1 3 3 3 9 5 10 3 2 0 2 9 7 10 16 18 18 20 18 14 12 8 14 17 14 15 14 14 15 12 8 11 10 12 9 9 9 7 6 5 5 6 7 7 5 3 3 4 4 3 3 3 3 3 2 2 2 2 2 4 4 5 5 5 5 6 6 5 4 4 4 4 5 6 6 6 5 5 6 6 6 6 6 7 8 8 8 10 8 11 11 11 13 9 10 8 9
3 1 1 9 3 3 8 1 3 1 2 6 6 16 18 18 16 22 20 7 10 7 12 15 9 14 16 16 14 14 15 14 16 16 15 10 9 7 5 6 7 6 5 4 4 5 3 3 3 3 3 3 3 3 2 2 3 3 4 5 6 6 6 4 5 5 5 3 5 3 3 3 3 4 4 5 5 6 6 7 7 6 7 7 8 10 9 9 9 9 10 12 12 15 10 9 7
2 5 5 5 5 6 7 5 5 5 2 1 8 14 14 9 9 8 3 3 1 7 6 9 9 11 8 5 8 14 17 17 15 13 11 11 11 10 10 8 6 7 7 7 6 5 4 4 4 3 3 3 3 3 3 2 2 3 3 4 5 5 4 5 4 5 4 4 4 3 4 3 4 4 5 5 5 5 5 6 7 7 7 8 7 9 9 9 9 9 10 12 13 13 17 14 12
3 7 11 9 6 6 4 4 5 5 3 3 5 11 6 1 3 8 7 2 4 4 6 14 10 8 7 11 13 10 12 12 16 16 16 15 13 9 8 7 8 7 8 7 6 5 4 3 3 3 3 3 3 3 3 2 2 3 3 5 6 4 6 5 5 7 8 7 7 4 4 3 4 4 4 5 5 5 6 6 7 7 7 7 7 8 9 9 8 9 8 9 13 13 14 16 17
1 5 3 7 3 1 1 3 5 6 2 2 3 3 19 4 2 4 5 2 9 7 7 15 8 8 9 13 11 11 13 12 10 10 11 13 12 11 10 10 9 9 9 6 4 4 3 3 3 3 3 3 3 3 3 2 3 2 3 4 4 5 6 5 4 5 6 7 5 7 6 5 5 6 6 5 6 6 6 7 7 7 7 7 7 8 9 10 9 8 8 9 10 12 13 15 18
5 1 4 5 4 1 1 1 1 6 0 4 2 5 11 19 7 9 7 6 10 13 14 13 12 10 12 13 11 11 12 13 13 14 14 13 13 15 14 12 10 11 8 5 4 3 4 3 3 3 3 3 3 3 3 3 3 3 3 4 4 5 5 7 6 6 5 5 7 8 7 6 6 5 7 6 7 7 7 8 7 8 8 7 7 8 9 10 10 9 8 10 11 12 14 14 16
3 2 4 3 3 3 3 1 2 2 5 9 5 1 3 10 3 4 2 5 9 14 15 13 10 10 12 12 12 12 12 12 12 13 15 16 16 13 10 11 9 8 6 6 6 4 3 3 2 2 3 3 3 3 3 3 3 3 4 4 5 5 5 6 5 6 6 6 7 7 7 7 7 6 6 7 7 7 7 8 8 8 8 8 7 9 9 10 13 13 10 9 9 12 13 15 16
1 4 5 6 6 5 2 1 0 5 3 15 7 8 5 21 4 5 4 1 7 11 12 13 11 9 7 9 8 8 7 8 10 13 13 14 12 11 9 7 7 7 6 4 3 3 3 2 2 2 3 3 3 3 3 3 3 3 3 4 5 6 5 6 5 7 6 5 7 8 7 7 7 7 6 7 8 7 8 8 8 8 9 9 8 9 10 12 11 11 12 12 13 15 13 14 16
4 4 1 3 5 3 2 6 1 3 8 13 6 15 8 12 2 8 9 9 11 9 6 7 8 9 5 5 6 8 9 10 10 11 10 10 8 9 8 9 8 5 3 3 3 3 3 2 2 2 3 3 3 3 3 3 3 3 4 4 4 6 7 6 8 8 6 7 8 9 8 8 7 8 7 7 7 8 8 9 9 9 9 9 9 9 10 10 10 11 13 15 17 16 14 14 17
3 1 2 6 4 5 3 4 4 1 10 3 2 11 8 10 5 6 6 3 4 8 7 7 8 11 5 4 4 7 9 9 9 9 9 9 8 7 6 8 6 5 3 4 4 3 3 3 2 3 3 3 3 3 3 3 3 3 3 3 5 5 6 6 8 9 8 9 9 10 9 9 9 9 8 8 8 7 8 8 8 10 9 9 10 9 10 10 10 11 13 13 14 15 15 16 16
3 4 4 1 6 7 6 3 2 6 10 1 2 5 5 17 20 4 6 10 7 9 8 8 10 10 2 3 6 7 7 7 9 10 10 11 13 12 10 8 6 5 7 6 5 4 3 3 3 3 3 3 3 3 3 3 3 3 3 3 4 5 6 6 8 9 7 8 8 10 10 10 10 10 9 8 9 8 8 9 9 9 10 9 10 10 10 11 11 11 12 15 15 16 16 16 16
6 6 5 4 1 1 6 5 2 7 6 3 2 2 10 12 10 16 21 18 13 12 11 9 9 7 4 4 5 6 8 9 10 11 12 13 12 11 10 10 8 7 6 6 4 4 3 3 3 3 4 3 3 3 3 3 3 3 3 3 4 5 6 6 7 8 8 7 7 9 10 10 10 11 11 10 9 9 8 9 10 11 11 11 11 11 11 11 11 12 13 15 17 15 14 17 18
9 3 8 8 8 5 5 3 6 11 8 1 5 2 9 2 5 1 11 11 9 6 5 6 4 4 5 5 5 6 7 7 9 11 12 13 12 11 10 9 8 7 6 5 4 4 4 3 3 3 3 3 3 3 3 3 3 3 3 3 5 4 6 6 6 6 8 9 9 9 10 9 10 11 10 11 11 10 11 10 11 12 11 11 11 11 11 11 11 11 13 13 16 13 16 17 16
2 2 5 5 9 6 6 5 3 5 8 9 4 9 4 7 1 1 2 3 7 4 7 5 7 1 3 4 7 8 8 9 9 10 11 11 10 9 9 7 6 6 6 5 5 4 3 3 3 3 3 3 3 3 3 3 4 4 4 5 5 5 6 6 6 6 7 8 10 10 11 10 10 10 10 11 11 11 12 12 12 12 12 12 12 12 12 11 11 12 13 13 16 13 16 17 15
3 6 6 7 1 4 2 3 1 1 3 18 3 11 11 3 11 9 8 4 11 5 9 7 7 2 1 7 7 6 8 9 10 12 12 11 8 9 8 7 6 5 5 6 5 4 4 3 2 3 3 3 3 3 3 3 4 4 5 5 5 5 5 6 8 9 9 9 9 10 10 11 11 10 12 11 13 12 12 12 13 13 12 12 12 12 12 12 12 13 13 16 16 15 17 17 15
8 3 8 2 2 4 5 5 3 2 4 12 2 14 22 5 14 4 2 7 7 7 12 9 3 3 5 11 8 8 10 10 10 9 9 10 10 10 8 7 7 7 6 5 4 3 3 3 2 3 3 3 3 3 3 3 4 5 5 5 5 5 6 7 7 9 9 9 10 9 10 10 11 11 12 12 13 14 13 13 13 13 13 12 13 12 12 13 13 13 15 15 17 14 17 16 17
2 2 2 5 4 1 1 4 4 3 5 9 12 8 16 15 16 2 6 7 8 10 11 5 6 7 12 12 9 7 6 7 10 12 11 11 12 11 10 9 6 5 4 4 4 3 3 2 2 3 4 4 3 3 3 3 3 4 5 5 6 6 5 7 7 8 9 10 11 10 11 11 12 12 12 13 13 14 13 13 13 13 13 14 13 14 13 13 13 14 16 14 15 14 17 17 16
1 0 1 1 1 2 5 7 3 4 7 3 19 13 22 3 9 5 11 10 10 9 7 9 12 13 13 11 9 10 10 12 11 12 12 13 11 10 10 9 7 7 5 4 4 3 3 3 3 3 3 3 3 3 3 4 4 4 6 5 5 5 6 7 7 8 9 10 11 11 12 12 12 12 12 13 14 14 14 15 13 14 15 14 16 14 16 13 16 15 14 16 13 17 17 18 17
2 2 2 1 1 2 4 1 5 6 4 7 5 14 24 6 10 9 11 8 12 10 12 9 10 13 13 11 11 10 12 12 13 13 13 12 11 9 7 5 5 4 4 4 5 5 4 3 3 3 4 4 3 3 4 4 4 5 5 7 7 6 7 7 8 8 10 10 10 11 11 11 12 12 12 15 14 15 15 15 17 15 17 15 16 17 15 14 15 15 15 15 17 16 19 17 17
15 15 14 16 10 4 2 13 3 2 5 7 6 20 21 10 6 9 7 9 9 10 11 9 10 12 11 11 10 11 11 13 12 12 11 11 10 9 6 5 4 5 5 4 4 3 3 4 4 3 3 3 3 4 3 4 4 4 5 6 7 5 7 7 8 9 10 10 10 10 11 12 13 13 13 14 15 14 14 16 16 19 14 17 16 19 14 17 15 18 17 15 15 17 18 19 17
Wind_Direction
9 340 185 118 80 113 53 1 159 338 59 354 28 29 179 207 202 33 195 357 47 305 291 63 52 27 202 180 132 132 62 106 224 133 210 224 184 331 357 350 344 350 357 345 345 344 354 1 25 33 37 40 39 38 35 33 33 32 33 35 34 32 26 17 358 340 332 340 340 322 311 304 303 302 295 287 277 280 283 279 285 287 277 267 269 276 281 288 293 296 297 299 301 297 291 293 294
107 56 77 151 36 72 236 133 100 355 39 69 242 111 228 288 75 227 171 150 183 124 141 87 78 78 84 103 120 109 34 12 176 155 149 242 294 332 357 352 340 352 345 343 351 354 356 4 24 35 40 42 43 43 41 39 35 33 33 31 30 30 30 29 25 16 10 4 357 353 343 333 330 323 313 292 288 281 280 288 284 287 288 296 299 283 283 294 292 295 298 299 299 297 293 281 281
55 81 74 38 32 79 96 32 299 76 75 36 272 208 342 140 108 36 228 160 139 154 158 100 98 70 41 28 36 62 205 309 17 5 135 353 67 329 336 337 341 350 346 345 356 359 357 9 27 35 39 42 43 43 44 42 41 38 35 34 31 29 28 27 26 23 20 16 13 7 360 353 346 343 334 326 316 310 306 291 282 271 272 273 273 282 284 278 284 292 298 299 298 298 295 290 286
87 34 156 76 237 32 61 27 89 121 115 205 298 276 196 170 147 128 21 149 155 140 213 26 55 279 103 58 126 78 54 16 113 232 31 13 86 283 315 325 339 339 359 6 358 359 356 16 32 38 41 44 43 42 42 42 41 40 39 38 35 31 30 28 25 22 22 20 20 18 13 10 5 2 356 348 336 321 318 310 289 274 272 273 274 275 281 281 283 288 287 289 293 296 296 295 289
64 353 78 102 110 4 103 116 138 102 344 202 131 266 256 210 131 144 197 221 246 260 314 164 79 340 109 122 6 146 195 266 357 68 134 301 339 336 325 332 341 354 14 3 2 358 357 26 36 39 41 43 44 43 41 40 39 39 38 36 35 34 33 30 27 25 23 20 19 20 18 16 13 13 9 2 351 344 337 326 323 312 300 293 291 287 284 285 286 288 291 291 292 295 296 296 292
63 44 3 87 17 164 67 65 51 79 220 145 96 214 223 209 134 158 156 105 60 118 170 75 159 181 26 345 171 113 230 103 190 17 111 353 344 330 333 317 325 20 11 10 8 360 359 29 37 40 41 40 42 41 40 39 38 37 36 35 34 34 32 31 30 27 26 24 22 20 17 15 14 14 13 11 7 359 350 345 336 330 320 314 309 301 292 286 286 290 291 293 294 293 292 294 295
254 46 360 22 32 47 170 122 165 171 264 155 271 242 219 198 150 131 143 85 338 51 13 132 119 99 67 271 0 125 222 241 68 155 103 318 343 331 317 317 345 37 18 14 10 5 4 32 37 39 41 40 40 39 39 39 39 38 36 35 33 33 32 31 30 29 27 25 23 20 18 17 15 13 14 10 10 9 5 359 353 344 332 331 325 316 303 294 294 293 291 293 294 294 295 295 297
61 117 315 106 319 47 45 177 142 163 347 176 192 235 236 210 172 137 179 124 205 142 70 137 116 100 249 62 167 242 13 114 162 328 28 23 338 316 330 326 36 31 20 12 12 10 7 31 37 40 40 40 40 40 39 38 37 36 36 36 34 32 32 31 30 29 27 25 23 22 21 20 18 15 15 11 10 9 7 5 3 359 353 347 339 325 315 313 308 300 294 296 296 294 288 291 293
3 86 241 67 48 30 64 73 232 227 279 289 279 214 309 189 164 124 117 219 74 131 160 192 207 76 216 84 153 260 305 327 18 34 21 354 350 315 345 1 48 31 20 17 14 13 13 26 37 38 39 40 40 41 41 41 39 37 35 34 33 33 32 31 30 29 27 25 23 23 22 20 20 19 17 16 13 11 9 6 5 1 356 352 347 343 335 323 312 306 301 301 301 299 295 286 283
38 46 275 111 136 43 23 294 101 191 240 233 241 207 127 196 161 143 149 132 175 140 205 183 161 141 145 148 141 286 185 304 84 68 358 321 306 320 5 18 43 47 30 18 15 13 17 19 32 37 38 39 41 41 41 41 40 39 37 36 34 33 33 32 30 29 27 25 25 25 22 21 20 19 19 17 15 13 10 9 6 2 0 355 350 348 343 338 331 324 318 309 304 303 302 297 285
310 16 131 73 33 98 177 225 264 316 249 316 297 240 205 163 138 122 133 138 125 156 166 129 42 134 124 213 210 256 64 95 110 161 277 292 309 325 38 22 27 48 45 24 13 16 15 19 22 32 35 36 37 38 39 38 38 38 37 36 36 35 34 33 31 30 27 26 26 25 23 20 18 18 17 16 16 15 13 10 5 3 2 360 2 1 356 348 339 336 335 330 316 310 305 299 293
14 37 7 102 155 157 224 160 243 268 306 349 213 344 186 144 114 123 151 134 197 156 173 149 208 144 109 159 258 222 167 124 177 219 252 284 306 344 28 9 31 34 46 36 25 24 23 24 22 23 32 32 34 33 35 36 36 36 36 36 35 35 35 34 32 29 28 26 26 25 23 21 18 16 15 14 14 14 13 10 5 3 2 360 358 358 356 355 353 348 344 339 335 327 315 304 293
117 100 89 78 180 171 173 119 215 284 341 273 171 131 116 117 193 188 167 112 139 142 268 209 138 99 156 183 263 288 170 192 205 218 250 271 305 9 1 15 33 44 35 30 42 28 25 24 28 27 29 32 30 30 29 33 33 34 35 35 35 35 33 33 32 31 29 27 26 25 23 20 19 17 15 13 12 12 11 8 4 3 1 359 358 355 354 353 351 350 348 344 341 335 326 313 302
119 179 122 141 43 143 138 184 358 162 259 228 243 180 115 139 258 166 135 136 192 172 199 274 149 141 108 46 234 210 208 196 194 215 234 301 0 19 358 353 41 44 33 39 38 32 25 23 29 30 29 28 28 26 21 25 32 31 32 33 35 35 34 33 32 30 28 28 27 25 23 21 18 16 15 13 12 11 9 6 1 0 -0 360 358 355 353 351 351 351 350 347 344 340 333 326 316
109 138 84 118 75 99 232 132 200 162 231 197 210 146 110 359 103 97 164 147 225 213 303 357 180 130 238 155 252 200 186 190 186 174 77 1 36 6 10 7 36 41 38 36 38 33 24 24 28 30 33 31 28 27 26 13 25 26 28 30 31 32 34 33 33 31 27 25 23 23 22 21 17 14 13 11 11 10 8 5 359 359 358 358 357 354 352 351 350 348 347 345 344 342 339 335 330
135 83 85 105 184 141 232 165 43 119 252 186 281 149 93 13 156 138 231 153 180 343 115 192 0 199 278 191 241 170 167 156 168 114 92 67 357 352 6 5 30 27 32 36 34 23 26 34 26 31 33 29 27 28 23 20 15 24 19 22 26 28 29 29 30 29 26 22 22 19 16 17 16 13 9 7 8 6 4 2 -0 359 358 358 355 352 351 350 347 345 344 344 344 344 343 338 330
71 83 49 38 179 172 229 158 147 193 243 260 257 196 159 183 274 86 301 124 129 185 28 218 244 345 206 232 291 138 137 128 113 104 94 118 18 13 356 11 9 38 22 28 34 17 24 35 25 31 26 20 22 22 24 17 12 21 12 11 14 19 20 20 18 15 19 15 20 17 19 15 12 7 3 6 7 1 358 358 358 359 358 357 354 351 348 347 346 343 342 343 345 346 346 341 335
58 63 114 47 198 146 200 176 186 213 135 224 188 212 116 195 162 194 49 40 53 8 77 308 340 4 246 267 335 98 102 122 129 138 161 185 103 206 54 0 22 35 14 7 10 19 25 25 27 29 18 11 12 16 17 10 11 11 8 3 1 7 3 12 3 7 5 9 9 14 16 14 12 7 1 359 1 359 356 357 357 356 355 355 351 350 347 345 343 341 342 343 344 346 346 344 338
86 127 83 225 174 238 149 201 198 127 255 189 200 146 176 223 142 192 140 240 119 165 264 7 333 324 34 72 72 79 100 127 142 153 165 174 176 158 135 34 48 21 16 9 0 8 16 21 23 22 14 6 6 10 9 5 11 5 1 1 355 357 358 0 359 359 3 4 4 8 11 9 5 2 1 357 356 351 351 353 355 356 354 351 348 348 344 343 341 340 340 341 342 341 342 338 333
202 113 70 264 210 251 209 171 207 214 121 132 200 200 168 260 144 145 215 184 180 202 193 283 226 208 196 190 169 127 121 149 158 167 184 174 170 152 143 93 56 40 356 339 328 352 14 16 9 20 10 359 14 1 7 6 7 3 359 357 354 349 354 352 351 356 3 3 4 4 6 0 0 358 353 354 354 355 352 350 350 351 350 348 345 344 340 337 338 335 336 338 339 336 334 330 327
230 68 150 225 192 125 258 170 235 219 32 129 162 33 245 226 187 163 170 108 244 251 230 186 197 189 187 189 184 175 164 165 181 186 185 173 182 196 155 153 130 48 242 251 15 350 343 11 6 8 357 9 13 5 7 0 360 359 356 354 352 355 353 350 353 359 1 5 3 4 1 359 356 356 354 353 354 351 350 350 349 350 346 344 343 341 337 331 332 331 333 334 333 332 330 327 326
90 114 202 211 108 285 265 197 170 128 124 97 98 142 236 106 58 191 163 194 227 208 230 221 223 180 170 178 193 171 171 175 183 183 194 172 160 149 125 47 273 182 285 51 344 335 342 354 21 359 6 5 15 10 4 350 1 359 352 348 351 349 355 352 356 359 3 2 0 1 0 3 2 357 353 354 352 351 349 349 347 343 342 340 342 337 333 329 328 325 327 328 326 327 323 320 320
357 304 277 204 205 204 281 142 208 138 124 145 146 224 94 169 239 204 195 215 221 240 272 234 178 184 171 141 144 170 179 187 188 190 186 175 168 165 180 166 99 22 355 354 334 323 336 357 7 8 8 1 1 5 358 3 359 349 345 339 353 339 346 347 347 347 350 349 357 359 7 1 0 0 356 352 352 350 345 344 342 340 338 335 337 335 329 326 322 322 321 321 321 319 320 317 316
108 158 356 199 182 215 239 244 112 165 150 220 209 85 176 157 244 169 202 236 246 281 278 203 151 131 137 154 172 179 183 183 193 199 194 183 174 176 182 121 316 21 26 321 328 330 335 350 355 9 358 4 353 354 357 355 345 347 335 342 341 327 337 334 328 328 331 345 352 355 5 4 1 357 353 352 350 346 344 337 334 334 334 330 328 329 325 323 320 317 315 315 318 317 314 316 314
92 76 221 248 181 244 284 236 286 196 232 121 119 153 232 190 204 63 238 237 200 14 80 112 127 132 149 163 175 179 183 197 198 207 213 208 178 205 113 186 212 72 72 307 300 332 328 331 359 4 359 360 345 347 351 330 338 340 340 338 331 319 327 316 315 321 334 338 342 349 355 356 357 359 355 346 338 343 339 339 338 335 332 328 329 325 323 320 319 317 314 310 313 312 310 311 312
132 197 171 326 258 278 276 312 235 214 225 131 129 238 288 264 291 255 245 233 143 102 94 124 132 148 170 180 181 179 185 192 196 192 194 189 201 128 150 166 128 136 195 246 287 286 302 349 6 356 350 329 335 354 338 346 341 346 334 331 316 324 318 313 317 323 318 330 335 346 349 355 357 356 348 344 350 340 337 335 336 335 333 331 331 325 323 317 314 314 310 307 305 304 305 305 307
153 243 203 205 263 323 310 211 281 185 221 178 186 241 273 344 57 280 43 170 130 114 131 148 155 171 178 182 191 196 187 198 194 184 159 191 172 165 186 197 169 203 167 271 277 293 319 5 352 354 359 357 2 8 338 339 340 346 325 319 319 318 315 319 319 314 321 326 334 343 348 360 0 357 354 347 347 343 341 342 340 336 334 334 331 323 322 318 310 303 304 304 303 300 296 297 300
62 204 342 278 323 255 281 319 282 137 261 167 185 255 218 278 87 246 169 181 162 145 163 169 180 179 184 193 197 203 208 213 203 165 180 178 193 191 193 174 198 221 167 231 251 300 351 356 336 359 5 359 15 352 346 338 337 325 318 323 321 319 328 324 322 322 320 326 337 353 5 7 359 350 351 348 352 349 346 346 338 338 334 332 333 329 323 318 311 304 297 293 291 293 293 289 286
180 106 321 298 350 64 267 213 265 188 247 142 159 255 253 169 232 254 213 141 158 156 170 188 190 193 198 203 208 211 212 212 203 204 200 197 193 183 180 198 171 185 224 197 258 356 344 331 7 346 4 7 4 341 327 316 319 321 318 320 318 328 327 326 325 324 321 328 346 4 21 359 351 359 0 3 359 353 343 336 335 331 328 330 328 324 321 318 315 312 306 299 293 287 287 289 284
128 35 98 332 359 359 203 103 7 149 264 146 227 303 253 213 234 198 160 151 123 150 195 199 201 200 208 210 212 221 225 224 215 216 205 204 195 185 179 204 187 170 185 134 83 36 338 353 8 346 5 356 332 326 320 318 309 306 310 314 319 329 323 324 317 313 315 324 340 2 17 353 3 11 9 3 354 347 341 336 332 328 328 327 324 322 320 318 311 311 310 311 304 299 294 287 288
174 273 67 83 13 272 277 107 197 161 136 176 73 221 284 239 254 204 173 163 165 188 204 205 205 208 211 213 215 216 225 211 211 217 226 211 206 188 194 208 191 199 134 80 107 273 358 340 351 345 332 320 317 310 301 299 298 302 308 309 312 323 316 313 300 304 305 306 320 4 15 7 14 13 6 357 341 336 331 327 326 326 326 326 322 322 318 316 312 308 308 303 301 301 297 291 289
15 20 299 326 106 278 294 257 189 193 352 337 103 277 250 279 268 189 179 180 176 201 203 207 208 209 212 214 217 218 225 221 234 236 225 214 194 197 195 201 194 174 176 181 209 44 14 299 263 232 294 280 278 270 280 289 287 295 299 303 314 305 303 293 290 293 297 305 332 8 18 14 7 2 354 346 338 333 330 327 324 325 328 325 323 319 318 314 315 309 305 303 301 293 296 296 292
350 78 265 274 313 264 337 17 248 277 123 351 180 243 313 293 287 197 188 180 197 211 214 215 213 212 211 214 213 217 223 235 235 231 225 209 210 196 202 200 183 189 178 172 189 182 234 266 259 245 257 249 273 286 303 299 300 297 294 295 287 290 288 281 283 290 301 308 328 11 23 8 351 351 347 344 346 333 331 329 324 325 326 324 318 316 313 313 312 308 304 300 292 294 291 285 290
311 23 222 209 235 300 288 301 33 321 155 216 251 218 249 253 248 198 198 195 192 220 223 221 217 212 213 215 214 214 216 214 217 213 214 204 206 204 202 197 192 182 188 184 188 183 200 218 236 233 238 250 242 261 270 278 279 284 281 279 280 275 274 270 272 288 290 287 317 24 30 358 350 345 344 344 340 336 333 328 326 324 322 318 314 309 306 305 304 307 306 307 306 299 291 288 286
259 283 305 306 298 218 246 304 259 52 191 219 249 236 262 269 267 215 208 194 202 220 216 219 215 210 214 214 215 217 216 215 216 206 199 200 204 208 197 203 202 194 186 189 191 200 209 229 235 239 253 264 275 270 271 279 284 284 278 281 283 275 279 274 277 288 284 289 315 34 28 357 345 343 341 343 344 340 338 334 331 329 326 322 319 313 311 309 308 305 302 298 290 287 287 287 287
228 197 209 200 264 270 220 236 274 144 291 279 221 234 257 270 276 259 196 198 206 228 227 243 221 215 216 217 219 217 217 221 214 203 200 199 198 193 195 201 210 205 193 186 190 194 205 244 232 267 253 244 265 265 282 282 287 285 301 310 303 264 272 285 279 268 282 290 300 27 12 348 340 338 335 338 338 338 337 336 333 333 333 331 327 325 321 321 314 308 296 293 293 285 276 280 284
106 109 149 237 236 275 275 229 267 356 321 254 260 244 256 265 269 274 234 190 228 234 228 229 224 216 214 217 218 218 216 218 193 202 201 198 197 194 194 188 207 214 209 186 185 211 204 204 180 235 240 242 232 258 270 248 288 315 309 279 280 291 290 282 266 266 278 275 275 0 340 332 325 330 336 342 342 338 336 330 331 330 326 319 312 305 304 302 302 302 300 292 291 291 283 271 274
161 184 202 271 210 260 266 281 16 317 162 289 296 266 258 259 270 270 252 167 233 217 229 236 227 220 219 218 220 216 218 159 179 212 213 206 197 197 195 197 189 185 212 183 194 208 204 205 197 227 255 249 243 227 229 261 232 230 271 281 285 295 301 297 304 313 300 294 302 340 332 335 339 336 332 337 334 333 328 328 322 313 313 302 293 292 297 302 304 300 300 295 278 285 290 287 282
82 197 229 301 269 249 280 315 8 308 137 261 293 286 270 265 262 268 258 233 246 209 210 235 216 222 225 221 223 216 199 204 200 211 202 200 197 197 194 201 205 205 187 190 199 205 230 226 216 213 226 219 237 236 223 242 258 273 242 267 271 281 261 255 263 274 288 297 317 334 334 339 340 332 328 326 323 318 315 313 306 300 292 297 301 297 295 296 296 299 296 292 298 274 273 279 273
145 113 182 238 232 11 305 299 6 302 183 295 306 289 275 266 254 255 265 242 252 222 224 236 211 225 222 220 210 204 207 201 204 201 200 194 194 195 197 203 209 203 213 211 214 214 218 222 216 209 230 225 233 246 238 229 253 264 271 267 271 252 261 269 268 272 279 300 305 303 294 295 296 294 299 304 308 311 309 303 299 296 297 299 299 300 301 298 302 304 304 297 296 299 292 283 267
268 198 220 257 267 235 199 268 317 282 335 103 290 282 271 235 237 267 349 351 243 261 257 256 238 235 239 236 210 206 208 201 203 200 196 192 194 200 195 201 193 196 205 206 205 204 198 208 208 203 220 226 226 241 243 250 275 296 280 277 261 267 277 264 264 262 243 261 279 291 282 278 274 275 278 273 274 278 278 280 287 290 292 292 292 292 294 294 296 291 293 293 291 291 294 292 287
318 228 206 223 231 264 293 343 2 4 327 334 27 328 287 315 229 250 271 347 297 266 247 259 242 227 221 230 225 208 216 203 201 197 194 192 192 189 199 198 191 203 208 213 202 199 184 208 208 223 231 236 237 238 228 225 241 260 295 314 321 315 311 313 310 321 318 319 308 291 278 265 267 267 264 269 262 275 279 276 277 281 281 285 288 287 286 288 285 284 282 285 286 284 285 291 285
50 268 200 221 226 205 340 346 28 309 232 317 35 120 287 135 240 248 268 249 279 265 222 260 258 233 217 229 223 208 205 202 202 195 191 190 192 188 198 196 196 199 214 203 196 199 193 197 202 213 225 234 241 242 226 226 245 237 245 255 252 263 274 273 264 280 282 288 289 293 290 287 280 282 286 280 285 286 288 287 284 280 279 280 286 288 291 289 288 280 279 276 279 285 282 279 280
238 255 113 98 109 128 182 108 197 245 312 292 239 179 268 286 228 236 249 270 263 279 273 258 256 240 228 230 221 212 205 200 193 196 193 195 189 190 191 194 195 201 200 187 198 195 198 200 183 217 228 244 246 245 240 215 230 245 259 261 262 262 254 275 286 277 272 280 289 288 290 284 280 276 282 283 282 287 288 287 285 288 289 285 287 287 292 295 290 281 269 269 277 277 280 277 281
220 212 132 121 122 171 147 101 239 238 6 294 207 89 299 258 268 345 95 201 263 260 263 268 259 242 234 230 220 213 206 199 191 192 195 192 193 193 187 192 201 198 194 193 196 202 190 178 183 202 236 239 251 245 243 232 223 237 243 264 279 268 271 278 283 281 285 283 281 286 285 284 282 276 271 279 278 276 283 287 289 289 289 293 292 291 292 295 294 291 285 277 273 274 268 270 271
240 138 95 84 74 69 103 117 185 315 58 276 180 195 196 279 173 149 355 192 253 250 249 254 260 255 234 229 225 211 198 195 199 201 194 194 192 188 191 189 188 200 199 188 193 178 190 177 181 191 237 237 244 253 239 243 231 234 255 260 269 284 287 291 283 287 287 286 287 288 287 287 285 284 278 273 278 279 284 287 288 290 293 291 289 287 291 291 290 287 284 279 275 273 266 262 261
121 104 87 6 41 36 31 69 82 34 269 262 222 191 165 282 199 178 151 198 201 219 273 279 275 272 252 235 209 199 195 195 196 195 193 190 185 184 179 189 197 202 197 191 200 193 184 186 193 195 228 242 244 251 246 254 247 237 249 260 272 288 297 295 300 294 296 303 300 298 296 294 290 285 284 276 272 282 285 289 290 289 287 286 286 286 282 285 288 289 287 283 278 274 274 276 275
129 72 99 13 330 13 37 338 40 169 266 257 263 180 185 214 284 223 235 284 216 177 219 242 264 268 255 219 215 202 196 196 191 184 185 181 181 192 179 196 202 212 203 205 208 189 182 199 204 219 228 244 253 252 259 263 254 259 256 267 281 285 289 294 293 297 304 302 299 299 300 297 292 287 282 282 279 280 286 285 286 288 284 281 280 278 280 280 281 281 280 278 276 274 273 274 273
93 77 38 80 274 19 316 32 300 195 231 236 66 158 313 237 244 225 248 254 238 228 222 232 254 271 251 221 212 203 197 187 186 189 183 189 189 185 190 198 200 209 210 205 194 182 188 197 212 226 259 245 258 262 267 271 273 274 279 283 287 287 289 289 290 291 293 293 297 296 299 295 295 293 289 285 285 287 287 288 287 284 285 278 276 277 276 275 275 274 276 278 276 275 274 272 272
118 155 148 105 285 74 263 269 231 298 288 253 154 132 249 273 279 218 232 237 235 237 229 239 252 271 272 217 214 202 197 193 191 190 194 193 191 189 187 192 196 199 200 191 186 185 186 199 206 223 259 258 266 272 268 279 281 283 283 285 284 286 285 284 283 286 290 289 291 291 290 290 291 286 292 287 290 289 280 276 281 280 276 275 274 275 275 275 273 273 273 275 275 273 272 268 265
197 122 150 184 140 156 239 212 247 261 260 220 238 56 238 23 241 242 201 222 240 258 275 259 281 246 247 232 215 205 196 197 191 196 197 195 193 188 187 191 193 192 185 181 183 189 181 203 209 231 270 275 269 272 282 288 295 296 293 281 275 274 274 276 277 280 290 296 293 289 285 285 284 290 287 289 291 286 283 280 277 277 276 274 275 276 276 273 271 272 271 272 274 269 268 267 265
177 164 81 100 226 126 222 205 209 304 339 311 154 217 190 206 310 287 215 288 269 278 264 273 272 294 214 223 211 207 200 193 195 199 200 202 195 190 191 192 191 186 181 175 184 182 186 211 207 230 251 272 271 278 284 281 285 286 282 277 273 270 277 282 285 288 289 288 289 287 286 284 284 287 289 290 288 287 286 286 282 277 275 272 272 273 275 275 276 275 274 271 272 272 271 267 265
213 113 198 211 163 135 6 355 65 59 67 266 141 276 264 335 265 210 240 257 259 248 259 248 252 252 225 236 225 208 201 197 196 201 201 195 196 201 195 189 189 183 174 182 189 183 191 201 220 254 264 271 272 278 275 282 282 288 280 276 276 277 279 288 292 294 291 288 284 286 287 289 289 289 291 292 292 289 286 283 283 281 278 275 273 274 273 274 277 275 272 273 270 272 271 272 274
102 198 235 170 148 110 128 221 325 60 215 270 91 260 286 312 288 45 112 222 257 251 244 239 241 213 234 242 226 207 203 202 200 204 201 197 197 195 195 197 191 185 180 174 184 181 184 193 211 251 266 273 270 267 279 275 287 282 282 281 281 283 291 291 289 288 290 290 288 288 290 292 293 294 293 292 291 289 287 285 285 284 282 279 277 276 274 275 275 273 271 269 270 272 272 272 271
147 189 246 116 224 218 308 86 268 268 255 270 278 277 269 245 260 203 235 212 237 245 246 222 234 225 234 241 230 213 201 194 198 200 197 198 199 195 192 194 191 185 171 166 166 163 174 199 220 221 249 251 257 265 268 276 264 274 277 286 292 297 293 290 288 288 291 291 294 294 294 293 294 294 294 293 292 291 289 288 286 285 286 285 283 279 278 276 273 273 273 270 270 266 268 269 269
54 260 38 307 102 174 133 197 192 115 251 353 278 310 271 128 193 214 249 194 212 222 242 223 222 223 225 231 218 205 198 203 202 199 200 200 198 194 190 186 179 179 173 171 166 160 180 208 218 241 251 261 279 283 286 285 277 276 286 289 293 294 293 290 291 297 295 295 296 296 296 296 294 296 294 293 293 292 291 291 289 287 285 285 285 285 283 280 278 275 272 272 269 269 267 266 269
146 159 249 347 228 230 109 323 157 174 199 216 285 295 278 238 181 196 231 202 199 196 225 216 220 228 227 222 212 203 202 203 204 200 198 196 194 192 192 180 175 160 154 150 160 171 191 196 216 228 242 263 271 276 279 273 283 283 294 300 300 300 295 295 298 297 296 296 297 295 296 295 298 293 297 295 292 291 291 289 289 286 287 285 287 286 285 280 277 273 272 271 273 268 268 268 268
178 177 205 189 141 154 137 256 88 152 204 235 166 254 276 267 161 171 207 205 187 212 212 214 217 228 223 222 217 201 202 211 202 200 193 192 192 190 177 168 156 150 160 165 174 165 187 212 214 229 249 260 272 278 263 276 275 287 294 294 290 291 297 302 302 301 296 297 297 298 300 300 294 294 296 294 293 291 290 289 290 288 284 287 287 287 284 282 276 277 275 274 273 271 269 269 270